Regional Weather Roundup
Issued by NWS

Home | Current Version | Previous Version | Graphics & Text | Print | Product List | Glossary On
Versions: 1 2 3 4 5 6 7 8 9 10 11 12 13 14 15 16 17 18 19 20 21 22 23 24 25 26 27 28 29 30 31 32 33 34 35 36 37 38 39 40 41 42 43 44 45 46 47 48 49 50
000
ASUS43 KOAX 211902
RWRNE

WEATHER ROUNDUP FOR NEBRASKA
NATIONAL WEATHER SERVICE OMAHA NE
200 PM CDT TUE OCT 21 2014

NOTES: SATELLITE DATA IS BEING USED TO AUGMENT CLOUD COVER ABOVE
       12000 FEET.
       "FAIR" INDICATES FEW OR NO CLOUDS BELOW 12,000 FEET WITH NO
       SIGNIFICANT WEATHER AND/OR OBSTRUCTIONS TO VISIBILITY.

  * THESE STATIONS DO NOT REPORT WEATHER SUCH AS RAIN...SNOW OR FOG.

NEZ001>004-019>022-054>056-212000-
NEBRASKA PANHANDLE

CITY           SKY/WX    TMP DP  RH WIND       PRES   REMARKS
SCOTTSBLUFF    SUNNY     73  45  36 SE12      29.90F
ALLIANCE       SUNNY     71  48  43 S14       29.91F
CHADRON        MOSUNNY   82  43  25 SW14      29.82F
KIMBALL        SUNNY     75  42  30 SE7       29.94F
SIDNEY         SUNNY     70  48  45 S13       29.95F
$$

NEZ057>060-069>072-079>082-212000-
SOUTHWEST NEBRASKA

CITY           SKY/WX    TMP DP  RH WIND       PRES   REMARKS
NORTH PLATTE   SUNNY     75  54  47 S20       29.95F
IMPERIAL       SUNNY     74  54  49 S17G28    29.95F
LEXINGTON      SUNNY     75  51  42 S17G23    30.00F
MC COOK        SUNNY     78  56  46 S18G26    29.98F
OGALLALA       SUNNY     75  55  50 S21G29    29.94F
$$

NEZ005>010-023>029-035>040-094-212000-
NORTH CENTRAL NEBRASKA

CITY           SKY/WX    TMP DP  RH WIND       PRES   REMARKS
VALENTINE      SUNNY     76  44  32 S22G37    29.90F
AINSWORTH      SUNNY     75  37  24 S23G31    29.94F
BROKEN BOW     LGT RAIN  76  39  26 S21       29.99F
O`NEILL        SUNNY     77  41  27 S20G29    29.98F
ORD            SUNNY     76  40  27 S18G26    29.99F
THEDFORD       SUNNY     74  50  42 S23G30    29.96F
$$

NEZ041-046>049-061>064-073>077-083>087-212000-
SOUTH CENTRAL NEBRASKA

CITY           SKY/WX    TMP DP  RH WIND       PRES   REMARKS
GRAND ISLAND   SUNNY     78  39  24 S16G24    30.03F
AURORA         HAZE      76  36  23 S15G22    30.03F VSB 3/4
HASTINGS       SUNNY     75  36  24 SE18G26   30.03F
HEBRON         SUNNY     76  35  22 S14       30.05F
HOLDREGE       SUNNY     73  50  45 S18G24    30.02F
KEARNEY *      SUNNY     73  46  38 SE18G24   30.03F
YORK           LGT RAIN  75  43  31 S15G21    30.04F
$$

NEZ011>018-030>034-042>045-212000-
NORTHEAST NEBRASKA

CITY           SKY/WX    TMP DP  RH WIND       PRES   REMARKS
NORFOLK        SUNNY     76  45  33 S18       30.01F
ALBION         SUNNY     74  41  29 S15       30.02F
BLAIR          FAIR      73  40  31 S10       30.07F
COLUMBUS *     SUNNY     75  45  33 S14       30.04F
FREMONT        SUNNY     73  44  34 SE12      30.05F
TEKAMAH        SUNNY     75  39  27 SE12      30.05F
$$

NEZ050>053-065>068-078-088>093-212000-
SOUTHEAST NEBRASKA

CITY           SKY/WX    TMP DP  RH WIND       PRES   REMARKS
LINCOLN        SUNNY     77  45  32 S10       30.06F
OMAHA EPPLEY   SUNNY     72  40  31 S10       30.07F
BEATRICE       SUNNY     74  46  35 SE8       30.06F
FALLS CITY     SUNNY     74  43  32 VRB5      30.08F
NEBRASKA CITY  SUNNY     72  35  26 S5        30.08F
PLATTSMOUTH    SUNNY     72  33  24 SE7       30.08F
$$

NEZ044-045-051>053-067-212000-
OMAHA AREA

CITY           SKY/WX    TMP DP  RH WIND       PRES   REMARKS
EPPLEY FIELD   SUNNY     72  40  31 S10       30.07F
BLAIR          SUNNY     73  40  31 S10       30.07F
FREMONT        SUNNY     73  44  34 SE12      30.05F
MILLARD        SUNNY     72  43  35 SE9       30.07F
PLATTSMOUTH    SUNNY     72  33  24 SE7       30.08F
WAHOO          FAIR      75  39  27 S9        30.05F
$$



USA.gov is the U.S. government's official web portal to all federal, state and local government web resources and services.